Theta_e
343 339 340 339 333 337 334 333 334 332 331 331 331 329 330 331 332 333 334 335 337 339 339 340 339 338 338 339 342 343 343 344 343 343 343 342 344 343 343 343 343 340 337 338 337 336 335 333 326 316 311 310 310 310 311 313 314 316 316 319 326 333 336 337 335 334 335 337 336 335 331 326 326 328 331 333 334 334 332 333 333 332 332 332 332
340 337 340 338 333 335 334 334 333 332 332 331 329 327 329 330 331 332 333 335 336 338 338 339 338 338 338 340 342 342 341 342 342 342 342 342 343 341 342 342 341 339 337 336 334 333 329 324 317 311 310 310 311 313 314 316 317 318 319 319 324 332 336 336 333 331 332 336 336 335 329 322 321 324 329 332 332 332 332 333 333 333 333 334 333
337 339 339 338 334 334 334 334 333 332 332 330 329 327 328 329 330 331 333 334 336 337 337 337 337 337 336 338 339 338 339 341 340 341 341 341 341 340 341 339 340 338 334 331 327 322 317 313 311 310 311 312 314 316 317 318 319 319 320 320 323 328 331 332 332 331 331 332 333 332 326 322 326 328 330 332 333 334 334 332 332 334 334 334 334
338 340 340 339 334 335 335 333 333 332 332 330 328 327 328 328 329 330 332 334 335 335 336 336 335 335 334 335 334 334 337 339 339 340 341 340 339 339 338 336 336 333 327 322 317 312 311 311 310 311 312 315 316 317 319 320 320 320 321 322 322 324 324 325 328 328 327 326 326 325 322 324 328 330 330 330 332 334 333 332 332 332 333 333 333
340 341 341 339 335 338 336 334 333 332 332 330 327 326 327 328 328 329 331 332 333 334 334 335 334 335 335 333 332 335 337 337 337 340 340 339 338 335 332 330 327 322 317 314 311 310 311 311 311 313 315 317 317 318 320 322 325 327 328 329 330 330 329 326 324 323 323 323 322 321 322 325 328 330 329 329 332 334 332 332 332 332 332 332 332
341 342 343 339 335 339 337 335 333 332 332 329 327 326 327 327 328 329 330 332 333 334 334 335 335 334 333 331 330 334 336 334 337 340 338 337 335 329 325 322 318 315 312 311 310 311 312 312 313 315 317 317 318 320 323 328 332 333 334 335 337 337 336 335 330 325 323 323 323 322 323 326 330 334 333 331 333 334 333 332 332 333 332 332 333
338 340 344 340 335 338 337 335 333 333 332 329 327 326 326 326 327 329 330 331 333 334 334 335 334 333 329 329 329 328 333 336 339 341 339 336 329 323 322 320 317 314 311 311 311 312 313 313 315 316 318 320 322 325 329 333 333 334 335 336 336 335 336 338 338 333 328 324 324 324 324 325 330 337 337 334 333 332 332 332 330 331 332 333 333
336 337 340 338 336 339 338 334 333 333 332 330 327 326 327 326 327 328 330 331 332 334 335 335 333 331 328 328 327 327 335 340 341 341 339 332 321 320 323 323 319 314 312 312 312 313 314 314 316 317 321 326 328 330 332 332 333 334 335 335 333 332 334 337 339 338 333 328 325 325 326 326 328 335 337 336 334 329 328 330 329 330 332 332 331
337 336 337 337 337 340 339 335 334 332 332 330 327 327 326 326 326 328 330 330 332 334 335 335 332 330 328 327 326 330 338 341 341 341 337 325 317 322 325 324 320 316 316 314 314 314 314 315 316 319 324 329 330 331 331 331 332 334 334 333 330 331 334 336 338 337 335 331 326 326 326 327 328 332 336 337 335 330 326 328 329 330 330 329 330
338 337 337 336 337 342 340 335 334 333 333 331 328 327 326 326 326 329 330 330 332 334 335 334 332 330 329 329 329 334 339 340 341 340 335 322 318 324 325 325 322 320 319 316 315 314 314 315 316 320 325 328 330 330 330 331 331 332 332 331 329 328 332 336 337 336 335 331 328 328 327 328 328 330 335 336 335 331 327 328 329 330 330 330 331
338 337 338 336 337 343 339 335 335 333 334 331 329 327 327 327 327 330 330 331 332 334 335 334 333 332 331 331 331 335 338 340 341 340 333 321 319 324 325 326 325 324 321 318 316 314 315 315 316 319 322 326 328 329 328 329 329 330 330 329 328 324 326 330 333 334 334 332 330 329 328 329 329 330 334 334 333 331 328 330 331 332 332 330 331
338 336 338 336 336 342 339 336 335 333 334 332 330 328 327 327 327 330 331 332 333 334 336 335 334 334 333 332 331 334 337 339 340 340 331 319 320 324 325 326 326 326 322 319 317 315 316 315 316 317 319 324 326 327 326 328 329 329 328 328 325 322 322 325 328 331 332 333 331 330 329 329 329 332 336 333 331 331 331 332 332 332 331 330 332
339 338 339 337 336 340 338 336 335 334 334 332 330 328 327 327 327 329 332 333 333 335 335 335 335 335 334 332 332 333 336 339 339 337 328 318 320 324 325 326 326 326 324 321 320 319 320 319 318 318 319 322 324 326 327 328 328 328 327 324 321 321 324 327 330 330 330 333 333 331 330 330 329 332 337 334 330 333 333 333 332 331 331 331 332
339 340 341 339 337 340 339 336 336 335 334 334 331 329 328 327 326 328 331 334 335 336 336 337 336 336 335 333 332 330 333 337 337 333 325 318 320 324 324 326 327 327 326 324 323 324 324 324 323 322 322 324 325 327 328 328 328 328 325 321 320 322 327 331 333 332 331 332 333 332 330 330 330 332 336 334 332 335 334 332 332 332 332 331 332
340 340 341 340 339 340 340 337 336 336 335 334 332 330 329 327 326 326 330 335 336 337 338 339 339 336 335 334 332 330 330 333 335 331 322 318 320 324 325 326 327 327 328 326 326 326 327 327 326 326 326 327 327 327 328 327 327 326 322 319 320 325 329 333 333 333 332 331 333 332 331 330 330 331 334 335 334 335 335 334 332 331 331 330 332
344 342 342 342 340 341 341 339 337 336 336 335 333 332 330 328 326 326 329 335 337 338 339 340 340 337 335 334 332 331 329 330 333 329 320 316 320 324 325 326 327 327 328 327 327 327 327 327 327 327 328 328 328 327 327 327 326 324 322 320 321 327 331 333 332 332 332 331 333 333 331 330 330 330 332 334 334 334 336 335 331 330 330 331 332
346 344 343 343 341 341 342 341 339 337 336 335 334 333 331 329 327 326 327 333 337 338 339 340 340 337 335 333 332 332 329 327 327 326 320 315 319 323 324 326 326 327 327 327 327 327 327 327 327 327 328 328 327 327 326 325 324 322 322 320 322 327 331 333 332 332 332 331 332 333 331 330 330 330 331 333 334 336 336 334 331 331 332 332 333
346 346 345 344 341 341 342 342 342 339 336 336 335 334 333 330 328 326 325 330 336 338 338 339 340 337 334 333 333 332 330 327 324 323 319 314 318 322 323 325 326 327 326 327 326 326 327 326 327 327 327 327 327 326 325 323 323 323 320 319 321 323 327 332 333 332 332 332 333 333 332 330 331 329 332 335 336 337 337 336 334 334 334 333 333
345 347 346 345 342 342 344 344 342 339 337 337 336 334 334 332 329 327 325 326 334 338 338 339 340 338 335 333 333 333 331 328 323 322 320 314 316 320 322 324 326 327 326 326 326 326 326 326 326 325 326 326 326 324 323 323 323 321 318 317 320 319 324 332 333 332 333 333 333 334 331 330 330 329 333 337 337 338 338 338 337 336 335 334 333
346 346 347 346 344 343 345 345 343 340 339 338 337 335 334 333 331 329 327 326 332 339 340 340 340 339 337 335 334 335 333 330 325 321 321 316 314 318 321 322 325 326 326 326 326 325 325 325 325 324 325 325 324 323 323 322 321 319 318 318 318 317 322 332 334 332 333 334 333 334 331 330 330 330 333 337 338 338 338 338 336 335 334 332 331
346 346 347 346 345 344 345 346 344 342 341 341 339 337 334 333 332 330 329 327 330 337 340 341 340 340 340 338 337 337 334 331 327 321 321 319 315 316 318 321 324 326 325 324 325 325 324 324 324 324 324 323 322 322 321 320 319 317 318 317 316 317 321 330 334 333 334 334 333 333 331 330 330 330 332 336 338 338 339 337 334 335 334 331 331
346 346 347 346 346 345 346 346 345 344 343 342 341 338 335 334 333 331 331 329 330 337 340 341 340 339 340 340 340 338 334 331 328 321 319 319 317 315 316 318 321 323 323 320 321 324 324 323 323 323 322 322 320 319 318 318 317 316 317 316 316 318 321 327 331 332 334 334 334 332 331 329 329 330 330 336 339 338 338 336 335 336 333 331 333
346 346 347 346 346 345 346 346 346 345 343 342 342 340 337 335 335 335 333 331 332 337 339 340 339 339 340 341 340 337 334 331 330 324 318 318 318 317 315 316 317 318 318 316 316 320 324 324 322 322 321 320 318 317 317 316 316 316 317 317 318 321 323 325 327 329 330 333 334 332 331 330 330 329 329 336 339 338 337 336 336 335 332 332 333
345 346 346 346 346 345 345 346 346 346 344 342 342 342 341 338 338 337 333 333 334 336 338 339 339 337 339 341 339 337 335 332 331 329 323 318 317 317 316 315 315 314 314 314 313 315 319 323 322 321 319 318 316 316 315 315 315 316 316 318 321 324 325 326 326 327 327 330 333 332 332 330 330 329 329 336 339 337 337 337 335 333 332 332 332
344 344 345 346 346 346 346 346 346 345 344 343 341 342 342 340 340 338 333 333 333 334 337 337 337 336 337 339 337 336 336 334 332 331 329 324 320 317 317 316 316 315 314 313 312 312 313 318 320 318 317 315 314 313 313 314 314 315 316 319 323 325 326 326 326 327 327 329 333 332 332 331 331 329 329 336 338 338 338 336 334 332 331 332 331
342 343 345 346 346 346 346 346 346 345 344 343 343 342 341 340 341 339 334 335 333 333 335 336 336 335 335 336 336 336 336 335 333 331 330 328 326 322 319 318 317 316 316 314 313 312 312 313 314 315 314 312 312 312 312 313 313 314 316 322 325 327 328 327 326 327 328 330 333 333 333 332 332 330 330 335 338 338 338 336 334 332 331 331 331
340 342 344 345 345 346 346 346 345 345 344 344 343 344 343 341 340 339 336 336 335 334 335 336 335 335 334 334 336 337 336 336 334 331 329 327 328 326 323 321 320 319 317 316 315 314 313 312 312 312 311 311 312 311 312 313 312 313 318 325 328 328 329 327 327 327 328 330 334 335 334 333 332 331 331 335 338 338 338 336 333 331 331 331 331
341 341 343 345 345 345 346 345 345 345 344 344 344 344 344 342 341 340 337 336 336 335 335 335 336 335 334 334 335 336 336 336 335 333 329 326 326 327 326 325 323 322 319 317 316 315 314 313 313 312 311 311 311 312 314 312 312 317 324 328 329 329 328 327 327 327 329 331 334 335 334 333 333 331 331 335 337 338 338 335 331 332 332 331 331
342 341 342 343 344 345 345 345 345 345 344 344 344 344 343 343 342 341 340 338 337 335 334 335 336 336 335 335 334 335 335 336 336 335 329 325 325 325 326 327 326 325 322 319 317 317 316 315 315 314 313 313 313 314 313 311 317 325 329 328 329 329 328 327 327 328 331 333 334 335 333 332 332 332 331 334 337 338 338 334 331 333 332 331 330
342 341 341 343 343 345 345 344 345 344 344 343 344 344 343 343 342 342 341 340 339 336 334 335 337 337 337 337 336 334 335 335 335 334 330 326 325 324 325 326 327 327 324 321 319 319 320 320 318 318 317 315 315 313 311 316 324 329 329 329 330 329 327 327 328 330 333 334 334 334 334 332 332 332 332 334 337 338 337 333 332 333 332 332 331
343 341 340 342 342 345 344 344 344 344 345 344 344 344 343 343 342 342 342 342 340 338 335 334 336 338 338 338 337 335 335 335 334 333 331 328 327 325 325 325 326 326 325 323 322 322 322 321 320 319 317 315 313 311 315 323 329 330 330 329 330 329 327 327 329 333 334 334 334 334 334 333 333 332 332 334 337 338 336 333 332 333 332 332 331
342 342 340 341 341 344 344 343 344 343 344 343 344 344 343 343 342 342 342 342 340 338 336 335 336 339 339 339 338 337 335 335 334 333 332 330 327 325 324 323 323 322 321 320 320 320 319 319 318 316 314 313 314 317 323 329 330 330 330 330 329 329 328 328 331 334 334 335 334 335 335 333 333 332 331 334 338 338 335 333 333 333 333 332 331
341 342 340 341 341 343 343 343 343 343 343 343 343 343 343 343 342 342 342 341 341 339 336 334 336 338 339 339 338 336 335 335 334 333 333 330 326 325 324 323 322 320 318 317 317 316 316 316 314 314 316 319 321 325 329 330 330 330 331 330 330 329 329 329 333 334 334 334 334 335 336 334 333 332 332 335 337 338 335 333 333 333 332 332 331
340 342 341 341 341 342 343 344 343 343 343 342 343 343 343 343 342 342 342 341 340 339 337 336 336 337 337 337 337 335 334 335 334 333 333 330 327 326 325 326 325 322 320 318 318 317 316 316 317 320 324 327 328 329 330 331 331 331 332 332 330 330 330 331 334 334 334 334 334 335 336 335 333 332 334 336 338 337 334 333 333 333 332 332 330
340 341 341 341 340 342 343 343 343 343 343 341 342 342 342 342 342 342 341 341 340 338 337 337 337 337 337 336 335 335 335 335 334 334 333 330 328 327 329 330 329 327 327 325 323 320 319 321 324 327 330 330 330 331 331 332 332 332 333 333 331 331 331 332 334 334 333 334 334 335 336 335 333 332 334 336 337 336 333 332 332 332 332 331 328
341 341 340 341 341 341 342 343 343 342 342 341 342 342 342 342 341 342 341 340 340 339 337 337 337 337 337 336 334 335 336 336 335 334 333 331 330 330 331 332 332 333 334 333 329 324 325 330 332 333 333 332 332 333 333 333 334 335 335 333 331 332 333 333 334 334 333 334 334 335 336 334 333 333 334 335 336 335 333 332 332 331 330 329 325
340 341 340 340 340 341 342 342 342 342 342 342 341 341 341 341 341 341 340 340 340 339 338 338 337 337 338 336 334 334 335 337 336 334 334 333 332 332 333 333 334 336 337 336 334 331 333 336 337 337 335 333 334 335 335 335 336 336 335 333 332 332 334 334 335 334 333 334 334 335 336 334 334 333 334 336 336 335 333 332 331 329 328 326 322
340 341 341 339 339 341 341 341 341 341 341 342 341 341 341 341 340 340 340 341 340 339 338 338 338 337 337 336 334 332 334 336 336 335 335 334 334 334 335 335 335 336 337 337 337 337 337 337 338 338 336 334 336 337 336 336 336 336 335 334 332 333 334 335 334 334 333 334 334 336 335 334 334 334 335 337 336 334 332 331 330 328 327 324 320
338 342 341 339 339 340 341 341 340 340 340 341 341 341 340 340 340 340 340 340 339 338 338 338 338 337 337 336 335 332 332 335 337 336 335 335 336 336 336 337 337 337 337 337 337 338 338 338 338 338 337 337 338 338 337 337 336 336 335 334 333 333 334 334 334 334 334 335 335 336 336 335 335 335 336 337 335 334 332 332 330 328 326 322 320
336 340 341 340 339 340 341 341 341 341 341 341 341 340 340 340 340 339 339 340 339 338 338 338 338 338 338 338 337 335 334 336 336 336 335 335 336 338 338 338 338 338 337 337 338 338 338 338 338 338 338 339 338 338 338 337 337 337 336 335 334 334 335 334 334 334 334 335 336 336 336 336 336 337 337 337 336 334 333 332 330 328 324 320 320
335 339 342 341 339 340 340 340 340 340 340 340 341 340 339 339 339 339 338 339 339 339 338 338 338 338 338 339 339 338 337 337 335 334 335 334 336 338 339 340 340 340 338 337 337 338 338 338 338 338 339 339 338 338 337 337 337 337 336 336 336 336 336 336 335 335 335 335 336 337 336 334 335 337 337 337 336 334 333 332 330 328 324 320 321
333 336 340 341 341 340 339 340 340 340 340 339 339 339 339 338 338 338 337 338 339 339 338 338 339 338 339 340 339 339 338 337 334 333 334 334 336 338 339 341 341 341 340 339 338 338 338 338 339 339 339 338 338 337 337 337 337 336 335 336 338 337 336 336 336 335 335 336 337 337 336 334 334 336 337 336 335 334 334 332 331 328 323 321 322
332 333 338 341 342 341 340 340 339 340 340 339 339 339 338 338 337 337 337 337 338 338 338 338 339 339 339 339 339 338 338 336 334 334 334 334 335 337 339 341 341 342 342 341 339 338 338 338 338 339 339 338 337 337 337 337 337 336 335 337 338 338 338 337 336 335 335 336 337 337 336 335 335 335 336 336 335 335 334 332 331 328 323 322 322
333 333 336 340 342 341 341 341 340 339 339 339 339 338 338 337 337 337 337 337 337 337 338 338 339 339 339 339 339 338 337 336 334 334 334 334 335 337 340 341 341 342 342 341 340 339 339 338 338 339 338 337 337 338 338 337 337 337 336 336 334 336 342 338 334 335 335 335 336 336 336 336 335 336 335 336 335 335 334 333 332 328 323 322 323
335 335 337 340 341 341 341 341 340 340 339 339 339 338 338 337 337 337 337 337 337 337 337 338 339 339 339 339 338 338 337 336 335 335 336 335 335 336 339 341 342 342 341 340 340 339 338 338 338 338 337 337 338 338 338 337 337 336 336 337 335 338 342 336 333 336 335 334 335 335 336 336 336 335 335 335 335 335 335 333 332 329 323 322 323
338 338 339 341 342 342 341 341 341 340 340 339 339 339 338 337 337 337 337 337 337 338 337 337 338 338 338 338 338 337 336 335 335 336 337 337 336 337 339 341 342 342 340 339 338 338 338 338 338 337 337 338 337 337 337 337 337 336 336 337 336 337 339 334 335 339 335 333 335 334 336 335 335 336 335 335 335 335 335 334 333 329 323 323 324
340 339 340 342 342 342 342 341 341 341 340 340 339 339 338 338 337 337 337 337 337 337 337 337 337 337 338 338 338 337 336 335 335 336 337 337 337 336 338 340 341 342 341 339 338 337 337 337 337 337 337 337 337 337 337 337 337 337 336 336 335 335 335 335 337 340 337 335 334 334 336 336 335 336 335 335 334 334 335 334 333 330 324 323 324
341 343 342 342 343 342 342 342 341 341 340 340 340 339 339 338 337 337 337 337 337 337 337 337 337 336 337 338 338 337 336 337 337 337 337 337 337 336 337 339 341 341 341 340 339 338 337 337 337 337 336 336 336 337 337 336 337 337 337 337 336 336 335 335 336 335 337 338 335 333 334 335 335 334 335 335 333 332 333 333 333 331 325 322 324
341 343 343 343 343 342 342 342 341 342 341 340 340 339 339 338 338 337 337 337 337 337 337 337 337 337 337 338 338 337 337 338 339 338 337 337 337 336 336 338 340 340 341 341 340 338 337 336 336 336 336 336 337 337 336 336 336 336 336 337 337 337 335 335 334 332 333 336 338 336 332 332 333 332 333 334 332 331 331 332 332 330 325 322 323
340 342 343 343 343 342 342 342 342 342 341 341 340 340 339 339 338 338 337 337 337 337 337 337 338 337 337 338 339 338 338 339 340 340 338 338 338 337 337 337 338 339 340 340 339 337 336 335 335 335 336 337 337 337 336 335 335 336 336 336 337 337 335 333 332 332 331 331 335 335 329 329 331 330 331 332 332 331 330 330 330 330 326 322 322
340 340 342 343 343 343 342 342 342 342 342 341 341 340 339 339 339 338 338 338 337 337 337 338 338 338 338 338 339 339 339 340 340 340 340 340 340 339 338 338 338 339 340 340 338 337 335 334 334 334 335 337 337 337 336 336 336 336 336 337 337 337 336 335 333 333 332 330 332 333 329 328 330 329 328 330 331 331 330 330 330 331 328 322 321
Wind_Speed
31 34 34 34 33 31 32 33 31 31 30 29 30 30 32 32 32 32 32 32 32 32 32 32 32 31 29 28 27 26 25 24 23 23 22 22 22 21 21 20 19 19 19 18 17 15 14 13 13 13 14 16 16 16 16 16 15 15 14 14 14 13 13 13 12 13 13 12 11 10 10 10 10 11 11 11 11 11 11 12 12 13 12 11 11
39 38 37 36 35 34 34 33 32 32 31 30 30 31 32 32 33 33 33 33 33 33 33 32 31 30 28 27 26 26 25 24 24 24 23 22 22 21 20 19 19 18 18 17 16 15 14 14 14 15 16 18 18 18 18 17 16 16 15 14 14 13 12 12 12 13 13 13 11 9 9 10 9 10 10 10 11 11 11 11 12 12 11 11 11
43 40 39 37 36 36 35 34 33 33 32 31 31 31 32 32 33 33 34 33 34 33 32 31 30 29 28 27 26 26 24 23 24 24 23 22 22 20 20 20 18 17 17 17 16 16 16 16 15 17 18 19 19 19 19 18 18 17 15 14 13 12 12 12 12 12 12 12 11 9 8 9 9 9 9 10 10 10 10 10 11 11 10 10 10
42 41 39 38 36 35 35 35 34 34 33 32 31 32 32 32 33 33 34 33 33 33 32 32 30 30 28 27 26 25 24 24 24 24 23 22 20 19 20 19 18 18 18 18 18 18 17 17 18 18 19 19 19 19 19 19 18 17 15 14 13 13 12 11 11 11 11 10 9 8 8 9 9 8 8 9 9 9 9 10 10 10 9 8 9
40 40 39 39 36 34 34 35 35 34 34 33 32 32 32 32 33 33 33 33 32 32 32 31 30 29 27 26 26 25 24 25 25 24 23 21 19 19 19 19 19 20 19 19 19 19 19 19 19 19 20 20 20 19 19 19 18 16 15 14 13 12 11 10 10 10 10 9 8 7 7 8 8 7 7 8 8 9 9 9 9 9 9 9 9
39 38 38 39 37 36 34 35 35 34 34 33 32 32 33 32 32 32 32 32 32 31 31 30 29 28 27 26 25 25 25 25 25 23 21 19 20 20 20 20 20 21 20 20 20 20 20 21 21 20 20 20 19 19 19 18 16 15 14 12 11 10 9 8 8 9 9 8 7 6 6 7 8 7 7 7 7 7 8 8 9 9 8 8 9
42 40 37 39 38 38 35 36 35 35 34 33 33 32 33 33 33 32 32 32 31 31 31 30 29 28 27 26 26 26 25 24 23 23 21 20 21 22 21 21 21 21 21 20 20 20 20 21 21 21 20 20 19 18 17 15 14 13 11 11 10 9 8 7 6 6 7 6 6 5 5 6 7 7 5 5 5 6 7 7 8 8 7 7 8
45 44 40 40 39 38 37 37 36 35 34 33 33 33 33 33 33 32 32 32 32 32 31 30 29 28 28 27 27 26 25 23 23 22 21 21 23 23 21 20 21 21 21 21 21 21 21 21 21 21 20 18 18 17 15 13 12 11 10 10 9 8 7 5 4 4 4 4 4 4 4 5 6 7 5 3 4 5 6 6 7 7 7 6 6
45 46 43 42 39 38 37 38 37 36 35 34 34 33 33 33 33 32 32 32 32 32 31 30 29 29 28 27 27 26 24 23 23 22 22 23 24 23 21 21 21 22 22 21 21 21 21 21 20 20 19 17 16 15 13 11 10 9 9 9 9 9 7 5 3 2 2 2 3 2 2 3 5 6 5 3 3 3 5 6 6 6 6 6 7
45 45 44 44 40 37 37 39 37 37 35 34 34 33 33 33 33 33 33 33 32 32 31 30 29 29 28 27 26 24 23 23 23 22 21 23 24 22 21 21 21 22 22 21 21 21 21 20 20 19 17 15 15 13 11 9 9 8 7 7 8 8 8 6 4 2 2 2 2 1 1 2 4 5 5 4 2 2 4 5 5 5 5 6 6
46 45 45 45 41 38 38 39 37 37 36 35 34 34 34 33 33 33 33 32 32 32 31 30 29 28 27 26 25 24 23 23 23 21 21 23 24 23 22 21 21 22 21 21 21 21 20 19 19 17 16 14 14 12 9 8 8 7 6 6 7 8 7 6 4 2 2 2 1 1 1 1 3 4 5 3 2 2 2 4 4 4 4 5 5
46 47 46 45 44 40 39 40 38 37 36 36 35 34 34 33 34 33 32 32 32 31 30 30 29 28 26 26 24 23 23 23 23 21 22 24 24 23 22 21 22 22 22 21 21 20 19 18 18 16 15 14 13 10 9 8 7 6 6 5 7 7 7 6 3 1 2 3 2 2 2 2 3 4 4 3 2 2 2 3 3 3 3 4 4
48 47 46 46 44 41 41 40 38 38 36 36 35 35 34 33 33 32 32 31 31 31 30 29 29 28 26 25 24 23 23 23 22 22 22 24 24 23 22 22 22 22 22 21 21 20 19 18 17 16 15 13 12 10 9 8 6 6 6 6 7 7 7 6 4 1 3 5 4 4 3 2 3 4 4 3 2 2 2 2 2 2 2 3 3
51 48 46 46 45 42 42 41 39 38 36 36 35 34 33 32 32 32 31 31 31 30 29 29 28 27 26 25 24 23 24 24 23 23 23 24 24 23 22 22 22 22 21 21 20 20 18 17 16 16 14 12 11 9 8 7 5 5 6 6 7 7 7 6 5 4 2 6 7 6 4 3 4 4 5 4 2 3 2 2 1 1 1 2 2
50 51 47 46 45 42 42 41 40 38 36 36 35 34 33 32 32 31 31 30 30 30 29 28 27 27 26 25 24 23 23 24 23 23 24 25 25 23 22 22 22 22 21 21 20 19 18 17 16 15 13 12 10 9 8 6 4 4 5 6 6 6 7 6 6 6 3 5 8 7 5 4 4 5 5 5 4 4 3 2 1 0 1 2 2
41 47 48 45 44 42 41 41 40 39 37 36 35 34 32 32 32 31 31 30 30 29 29 28 27 27 26 25 23 23 23 24 23 22 24 25 25 24 22 22 22 21 21 20 19 19 18 16 15 14 12 11 9 8 7 5 3 3 4 5 6 6 6 6 7 6 3 3 8 8 7 5 5 5 6 5 5 5 4 3 2 1 1 1 2
35 40 45 45 45 43 41 40 39 39 38 37 35 34 33 33 32 32 31 31 30 30 29 29 28 27 26 25 23 23 22 23 24 23 24 25 25 24 22 21 21 20 20 20 19 18 17 16 14 13 11 10 8 7 5 3 2 2 4 5 5 5 6 6 7 5 1 3 6 8 7 6 6 5 5 5 6 5 4 3 1 1 1 2 2
31 35 40 44 45 44 42 40 39 39 38 37 36 34 33 33 32 32 32 31 30 30 30 29 27 26 25 24 23 22 22 23 24 24 24 25 25 24 23 21 20 20 19 19 18 17 16 15 13 12 10 9 8 6 4 3 1 2 4 5 4 5 6 6 5 4 1 3 5 7 7 6 6 5 5 6 6 5 5 4 2 2 2 3 3
29 30 33 39 42 43 42 40 39 40 39 38 37 35 33 33 32 32 32 31 29 29 29 28 26 25 24 23 23 21 21 21 24 25 24 24 25 24 23 22 20 19 19 18 18 17 15 14 13 11 10 8 7 5 4 2 0 2 4 4 4 6 6 6 4 3 1 3 4 6 6 6 7 6 6 6 6 5 4 4 2 2 2 3 4
28 29 31 34 38 40 40 40 40 40 39 38 37 36 34 32 31 31 31 30 29 28 28 27 26 25 23 23 22 21 21 20 22 24 24 24 25 25 24 22 21 19 18 18 17 16 15 14 12 10 9 7 6 5 3 2 1 2 4 4 5 6 6 5 4 2 1 3 4 5 6 6 7 6 6 7 6 5 3 3 2 1 2 3 4
25 27 30 33 34 37 38 39 39 39 38 37 36 36 34 32 32 31 30 30 29 28 27 26 25 25 23 22 22 21 21 20 21 23 24 24 24 24 24 23 21 19 18 17 16 15 14 13 11 10 8 7 6 5 4 3 2 3 4 5 6 6 5 4 3 2 1 3 3 4 6 7 7 7 7 6 6 5 2 3 2 2 2 4 4
25 26 29 32 34 35 36 37 38 38 37 36 36 36 35 33 33 32 31 30 30 28 27 26 26 26 24 23 23 22 22 21 21 22 24 24 24 24 23 23 21 20 18 16 15 15 14 12 11 10 9 7 6 5 4 3 3 4 5 6 6 6 4 4 3 2 1 3 4 5 6 7 7 8 7 6 5 4 1 2 2 2 3 4 3
20 23 26 30 32 33 35 36 37 37 37 36 35 36 36 34 33 33 32 31 30 29 29 28 27 28 26 25 24 23 22 22 21 21 22 23 23 23 23 22 21 20 19 17 16 14 14 13 12 11 9 8 7 5 4 4 3 4 5 6 6 6 5 5 4 4 3 4 5 6 7 7 7 8 7 6 5 3 1 2 1 2 3 3 3
15 17 21 25 27 29 32 34 35 36 37 37 36 34 34 35 34 34 34 32 31 30 30 29 29 29 28 27 26 24 23 21 21 21 21 22 22 22 22 22 21 20 19 18 17 15 14 13 13 12 10 9 7 6 6 5 4 4 5 6 5 6 6 6 6 5 5 5 6 7 7 7 7 8 7 6 6 4 2 1 1 3 2 2 3
14 15 17 22 23 25 27 29 33 37 38 38 38 36 35 34 34 35 36 34 33 32 31 30 30 30 29 28 26 24 23 22 21 20 21 22 22 22 22 21 21 20 20 19 18 16 15 14 14 13 11 9 8 8 7 6 5 5 5 6 6 7 8 8 8 7 6 5 5 6 6 6 7 8 7 7 6 4 2 1 1 2 2 2 2
13 16 17 20 23 23 23 25 29 34 37 37 37 38 38 36 34 35 37 36 34 34 32 32 31 31 31 29 27 25 24 23 22 21 21 22 22 22 22 22 21 20 20 19 18 17 16 15 14 12 11 10 9 9 8 7 7 6 5 6 7 9 9 9 8 7 7 6 5 6 5 6 7 7 7 7 6 4 2 1 2 2 1 1 2
10 16 18 19 23 25 24 24 26 29 31 33 33 34 36 37 36 36 37 37 35 34 33 32 32 32 32 30 28 26 25 25 24 22 22 22 23 23 22 22 21 20 20 18 18 17 15 15 14 12 11 10 10 9 8 7 7 6 6 7 9 10 10 9 7 7 7 6 5 5 5 6 6 7 7 7 6 4 2 1 2 1 1 1 2
10 16 20 20 23 24 26 26 25 26 26 27 30 31 33 35 35 36 37 37 36 35 34 33 33 32 32 31 29 27 26 26 24 22 23 23 23 24 23 22 21 20 19 17 16 15 14 13 13 12 11 10 10 9 8 8 6 6 7 8 10 12 12 9 6 6 6 6 6 6 6 6 6 7 7 7 7 5 3 2 2 2 1 1 2
13 17 20 22 23 23 26 27 25 25 25 24 27 30 31 32 33 33 35 36 36 36 35 33 33 32 32 32 31 29 27 26 25 23 23 24 24 24 23 22 21 20 19 17 16 15 13 12 11 10 10 10 9 9 9 7 5 4 7 8 10 13 12 9 6 5 6 6 6 6 6 6 6 7 7 8 7 5 4 3 3 2 1 1 1
16 19 21 22 23 24 26 27 26 26 26 25 25 28 29 30 31 31 32 34 35 36 35 34 32 32 32 32 31 30 28 27 26 23 23 23 24 24 23 22 21 20 19 18 16 15 13 12 11 10 9 9 9 9 8 6 4 4 6 8 11 13 11 8 4 4 5 6 6 7 6 6 6 7 8 9 8 6 5 4 3 2 1 1 1
15 23 24 24 24 25 27 29 29 27 28 28 26 25 27 29 30 30 30 31 32 34 34 33 32 31 31 31 31 30 29 28 26 24 22 22 23 23 22 21 20 19 19 18 16 15 14 13 12 11 10 10 10 9 7 6 4 4 6 8 11 13 10 5 4 5 6 6 7 7 7 7 7 7 9 9 8 7 5 4 4 3 1 1 1
17 25 27 28 27 27 29 32 32 30 30 30 28 25 26 29 29 30 30 30 30 32 34 33 32 31 31 31 31 30 29 29 27 25 23 22 22 22 20 20 19 18 17 16 16 15 14 13 13 12 11 11 10 8 6 6 5 5 6 8 12 13 8 5 5 6 6 7 8 8 8 7 7 7 9 10 8 7 6 5 4 3 2 1 0
20 26 28 30 30 30 30 32 33 33 33 31 29 28 28 28 29 30 30 30 30 31 33 33 32 31 31 30 30 31 30 29 28 26 23 22 22 21 19 18 17 16 15 15 14 14 14 14 13 12 11 10 8 7 5 6 6 6 7 9 12 12 7 5 6 6 7 8 9 9 9 8 8 8 10 11 9 8 6 6 5 4 3 2 1
19 23 29 32 32 31 29 29 31 32 32 32 30 29 29 28 29 29 30 30 30 31 32 32 31 31 31 31 30 30 30 28 27 27 24 22 22 21 19 17 15 14 14 13 13 13 13 12 11 10 9 8 7 6 6 6 6 6 7 9 11 11 6 6 6 6 8 9 9 9 9 9 9 9 11 11 10 9 7 7 5 4 3 2 2
19 22 28 32 34 33 29 27 28 29 29 30 30 29 28 28 28 28 30 30 30 31 32 31 31 30 30 31 31 30 30 29 27 27 25 23 22 21 19 17 14 14 13 12 12 12 12 11 10 9 8 7 7 6 6 6 6 6 7 9 10 9 5 7 7 7 8 9 9 10 10 10 10 10 11 12 12 10 9 8 6 6 4 3 3
25 25 26 30 33 36 35 30 26 26 28 28 28 26 25 27 28 27 29 30 29 31 32 32 31 30 29 29 30 30 29 29 28 27 26 24 23 21 18 16 14 13 12 11 11 11 11 9 8 8 8 7 6 6 5 5 5 5 7 8 8 7 6 8 8 9 9 9 10 10 11 11 11 12 12 13 12 11 10 9 7 7 5 4 3
31 30 27 29 31 34 38 36 31 27 26 26 26 24 22 24 26 25 26 28 29 29 30 30 30 30 29 29 29 29 30 29 28 27 26 25 23 20 17 15 14 13 11 10 10 10 10 9 8 7 8 7 5 5 4 3 4 4 6 6 6 6 8 9 10 10 10 10 11 11 12 12 12 13 13 13 13 12 11 9 8 7 6 4 3
32 33 30 32 32 32 37 39 36 32 28 25 25 24 21 22 24 23 24 27 28 28 28 28 28 29 29 29 30 30 30 29 28 27 25 24 22 19 16 14 13 12 12 11 10 10 11 10 9 7 7 6 5 5 5 4 4 5 5 5 6 7 9 11 11 11 11 12 12 11 13 13 14 14 14 14 13 12 11 10 8 7 6 5 4
31 33 31 31 32 32 33 36 37 35 30 25 26 25 22 23 24 23 23 24 26 27 27 28 28 28 28 28 29 29 30 29 28 27 25 24 22 19 16 14 13 12 13 12 12 12 12 12 11 8 7 6 5 6 7 7 7 6 5 5 6 7 9 11 12 12 12 12 12 12 14 14 14 14 14 14 13 12 11 10 9 8 7 6 5
30 33 34 32 32 32 30 31 34 35 33 27 25 25 24 24 24 24 24 24 25 25 27 28 28 27 27 27 27 28 30 30 28 27 25 24 23 20 17 15 14 13 14 14 13 13 13 13 12 10 10 9 7 8 8 8 8 7 5 5 6 7 8 9 11 12 12 13 13 12 12 12 13 14 14 14 14 12 11 10 9 8 8 7 6
28 31 36 36 35 34 31 30 31 34 36 33 28 27 27 26 24 25 25 24 24 24 25 27 27 27 27 26 26 27 28 29 28 28 26 25 24 21 18 16 15 14 15 14 14 13 13 13 13 13 13 11 9 8 8 7 7 6 4 4 3 3 5 7 9 10 11 13 12 11 11 12 15 16 15 14 14 13 12 11 9 9 9 8 7
30 29 31 34 35 35 34 33 33 33 36 38 36 32 28 27 26 24 22 21 22 23 24 26 27 27 26 26 26 27 27 27 28 28 28 26 25 23 20 18 16 15 15 15 15 15 15 14 14 14 14 12 10 7 6 6 5 4 3 1 0 1 3 5 7 8 10 12 11 11 12 15 16 16 15 16 16 15 14 12 11 11 11 10 8
31 30 26 29 33 34 34 32 33 34 34 35 37 35 31 28 25 23 22 21 21 23 24 24 26 26 27 26 26 27 27 27 28 29 29 28 26 24 21 19 17 16 16 16 16 17 16 15 15 16 15 11 9 6 5 5 4 2 1 1 0 0 1 4 6 8 10 12 12 11 13 16 17 16 17 18 18 17 15 14 13 13 12 11 9
26 29 29 29 31 32 33 31 32 34 34 33 33 33 32 29 26 24 24 23 22 24 25 24 25 26 26 26 27 28 27 27 28 29 30 29 27 25 23 20 18 16 16 16 17 17 17 16 16 17 15 11 8 7 6 5 5 4 1 1 0 0 0 2 5 7 10 11 12 12 13 17 19 17 18 20 20 18 17 16 15 14 14 12 10
22 26 30 30 30 29 31 32 33 33 33 33 31 29 28 29 28 24 22 22 23 25 26 26 27 28 28 28 28 28 27 27 28 29 30 29 28 26 24 22 19 16 15 16 17 17 17 16 17 17 16 12 9 7 6 6 7 8 6 2 0 0 1 1 2 4 7 10 12 13 14 17 19 19 19 21 22 20 18 18 17 16 15 14 12
23 25 27 28 28 28 31 32 33 33 32 32 31 29 28 29 28 27 25 24 23 26 28 29 31 31 30 30 30 28 28 28 28 29 29 29 28 27 25 23 21 18 17 16 16 16 16 15 16 16 15 12 10 8 7 7 7 9 11 10 6 4 2 2 1 1 4 8 10 13 15 17 18 20 20 21 23 22 20 19 18 18 17 15 14
24 24 25 26 27 28 31 33 33 33 33 32 32 30 29 29 29 28 28 27 25 26 29 30 31 32 30 30 30 29 29 29 29 30 29 28 28 27 27 26 24 22 20 18 18 17 16 15 15 16 14 12 11 9 8 8 7 8 10 13 12 11 8 5 3 1 1 3 6 10 15 17 18 20 21 22 23 22 22 21 20 20 19 18 16
22 25 26 27 29 30 33 35 34 33 33 33 34 33 32 31 30 28 27 27 27 26 27 28 28 29 29 29 29 30 30 29 30 30 28 28 27 27 28 27 27 25 23 22 21 19 17 16 17 16 14 12 11 10 9 9 8 8 8 10 12 13 13 11 9 6 2 2 3 7 13 19 19 20 22 23 21 21 22 23 23 22 21 21 18
21 24 27 29 30 32 34 34 32 32 32 33 34 34 34 32 31 29 27 26 26 25 25 26 27 29 30 29 29 30 30 30 30 29 27 26 26 27 28 29 28 26 25 24 23 21 19 18 18 17 15 13 12 11 10 9 9 9 9 9 10 11 11 10 10 9 5 4 3 2 8 14 16 18 23 25 22 21 23 23 24 23 23 23 21
21 22 22 24 26 27 30 30 30 31 32 33 34 34 33 31 31 30 28 26 25 24 24 24 27 29 29 29 29 31 31 31 30 28 27 26 26 27 28 29 27 26 26 25 23 21 20 19 18 17 15 13 12 11 10 9 9 11 11 11 10 10 8 5 7 9 6 5 4 4 7 11 10 11 17 23 25 24 23 21 22 23 25 25 22
19 20 19 20 21 22 25 28 29 30 31 32 33 34 33 32 31 31 30 28 26 25 24 25 27 28 29 29 29 31 31 31 30 28 27 28 27 27 28 28 26 26 26 24 22 21 20 19 17 16 15 14 12 11 10 10 11 12 13 12 12 13 12 9 10 12 9 6 4 5 9 12 12 11 11 14 20 22 22 21 21 23 26 27 24
Wind_Direction
178 178 174 172 171 166 165 164 161 161 159 157 154 150 147 145 142 140 139 140 141 141 143 143 144 143 142 140 137 137 138 136 135 135 134 135 134 133 132 132 132 132 130 129 131 130 131 130 125 124 123 124 125 126 124 120 117 114 110 105 102 101 101 100 96 92 90 89 89 88 84 83 85 87 88 90 87 83 79 76 75 71 70 69 71
176 177 174 172 172 167 166 165 164 163 161 159 155 152 148 146 143 141 141 141 142 143 143 144 144 143 142 139 138 139 137 135 135 134 134 134 134 134 133 133 132 130 130 130 132 132 133 130 128 127 126 127 127 126 123 118 115 110 107 103 101 100 100 98 95 93 90 92 95 93 86 83 83 84 87 86 84 83 79 75 73 71 71 70 67
170 174 174 172 172 168 167 166 166 164 162 160 156 153 149 147 144 142 142 142 144 144 145 145 145 144 143 140 139 139 136 134 134 134 133 133 132 133 135 135 131 129 133 135 134 134 133 130 129 128 128 128 127 124 120 116 112 109 106 102 97 95 96 95 94 93 91 95 98 97 89 85 81 82 88 89 85 84 82 78 78 78 77 77 76
167 171 172 172 173 169 168 167 167 165 163 160 156 154 151 148 145 144 144 144 145 146 146 146 146 145 143 141 141 139 136 134 134 133 132 131 132 135 137 135 130 132 136 136 134 134 133 132 130 129 130 128 125 122 118 114 110 106 102 96 90 87 85 87 89 90 88 90 94 93 88 88 85 84 89 91 93 93 87 82 80 82 82 82 82
167 170 171 172 172 170 169 167 167 165 162 160 157 154 152 150 147 146 145 145 146 146 146 146 145 144 142 141 140 137 135 136 135 132 132 132 136 138 136 132 132 135 136 135 135 134 133 132 132 132 130 127 124 121 117 112 107 102 95 89 82 77 74 75 79 83 83 82 85 85 85 88 86 84 84 86 91 90 85 84 80 75 74 73 75
168 169 170 171 171 170 169 168 168 166 163 160 158 156 154 151 149 147 146 147 146 146 146 145 144 142 141 140 138 137 137 137 134 133 135 137 140 137 134 133 134 135 135 136 135 135 133 133 134 134 131 128 126 122 117 111 105 99 90 82 73 67 62 62 68 74 77 76 78 79 80 84 87 87 82 83 91 93 89 85 80 74 70 68 69
170 170 170 172 171 171 171 170 169 168 164 161 159 158 156 153 151 149 149 148 147 146 146 145 144 142 141 140 140 140 138 137 136 135 136 139 140 136 134 134 134 135 135 136 136 134 134 135 136 136 134 131 128 124 120 113 106 98 88 79 69 60 53 52 58 66 70 72 75 77 76 82 93 101 93 87 97 102 98 89 81 78 74 70 70
171 172 173 173 173 171 171 170 170 169 165 163 160 158 157 154 152 151 150 149 148 147 147 146 145 144 144 143 143 143 140 138 138 136 137 139 140 138 135 134 134 135 134 134 135 134 134 137 139 139 136 133 130 126 121 113 105 95 86 78 64 51 47 51 57 62 69 71 72 74 76 84 101 113 117 109 104 98 91 86 78 76 77 73 73
170 172 174 175 174 172 172 171 172 170 166 164 161 159 159 156 152 152 152 151 150 149 148 148 146 147 146 145 146 144 141 140 139 137 139 141 141 139 136 135 135 134 133 133 133 134 135 139 142 143 139 135 132 128 122 115 103 92 85 77 61 47 45 55 64 74 86 81 77 75 73 84 102 114 126 135 122 93 78 75 76 78 76 73 68
170 172 174 175 174 173 173 172 172 171 168 166 163 161 160 157 154 152 153 152 151 151 150 149 149 149 148 147 147 144 142 142 140 140 141 143 143 140 138 137 135 134 133 133 133 134 136 141 146 146 143 137 133 129 124 115 102 93 89 78 63 54 52 58 67 81 107 111 97 96 82 93 107 112 129 151 153 100 75 72 75 81 71 66 65
171 173 174 175 174 173 174 172 173 172 169 167 164 162 161 158 155 153 153 153 153 153 152 151 151 150 149 148 148 146 144 144 142 142 143 146 146 142 141 138 136 135 133 133 133 134 136 141 146 148 145 139 135 131 125 117 110 104 98 80 64 61 59 62 75 96 138 153 145 146 155 145 122 112 130 161 169 144 95 79 74 87 71 60 61
173 174 175 176 174 174 174 173 173 173 170 168 165 163 162 159 156 154 154 155 155 154 154 154 154 152 150 150 150 147 146 146 146 145 147 150 149 146 144 141 138 137 135 135 134 134 135 138 142 145 145 142 140 136 130 124 121 111 92 70 55 60 61 54 60 124 193 200 196 181 181 176 146 119 138 181 186 169 119 87 80 87 65 50 50
174 175 175 175 174 174 174 173 174 174 172 169 166 164 162 160 158 156 156 157 157 156 156 156 157 155 152 152 151 150 149 148 150 150 151 153 152 150 147 143 142 139 138 136 134 134 134 135 137 140 143 144 144 139 133 128 126 103 75 58 47 53 55 41 22 358 211 212 213 205 193 182 174 143 155 196 190 166 137 107 96 73 50 42 40
172 174 174 174 174 174 174 174 175 174 172 170 167 165 163 162 160 158 158 159 159 158 158 158 158 156 154 153 153 154 154 152 154 155 154 156 155 154 152 148 145 143 140 138 136 136 135 136 136 138 141 145 146 144 139 132 124 85 61 55 47 46 42 27 0 339 250 214 212 213 203 193 192 162 164 193 182 178 187 163 122 47 35 27 30
172 172 172 173 173 173 173 174 175 175 174 171 169 167 165 164 162 160 160 161 161 161 160 158 158 158 156 155 155 156 157 156 156 158 158 158 158 157 156 152 149 146 144 141 140 139 138 138 138 140 143 147 149 149 143 131 114 68 56 52 47 44 31 16 350 332 301 223 208 209 207 202 200 177 169 183 188 194 198 184 182 30 29 12 10
173 170 170 171 172 172 172 173 175 175 175 173 171 168 167 166 164 162 162 163 163 162 161 160 159 160 159 157 157 157 159 159 159 160 161 161 161 161 160 157 153 151 149 146 144 142 141 141 142 145 148 152 151 150 144 129 103 60 49 42 44 41 24 9 352 342 326 226 203 202 207 208 206 191 173 177 195 200 200 194 189 171 70 23 7
172 170 168 169 171 171 172 173 174 176 176 175 173 171 170 168 166 164 164 165 164 164 163 162 162 162 161 160 159 160 162 163 164 164 164 164 164 165 164 161 158 156 154 151 149 147 145 146 148 151 153 155 155 154 150 140 110 57 37 31 40 35 16 3 356 358 7 195 194 196 206 212 212 200 174 179 202 201 198 201 172 120 72 40 23
171 171 169 169 170 171 172 173 174 176 176 175 174 173 172 170 168 166 166 167 167 166 166 164 164 164 164 163 162 161 163 165 167 168 167 167 168 169 168 165 164 162 160 157 154 152 151 152 154 157 160 162 164 165 164 159 127 42 24 25 32 22 7 359 358 6 85 171 185 195 208 218 217 203 179 190 208 203 196 193 157 103 53 27 15
170 171 170 170 170 171 171 172 174 175 176 174 174 174 174 173 169 169 167 168 168 166 166 166 165 164 165 165 164 164 166 168 169 170 170 170 172 173 171 169 169 168 165 162 159 158 158 159 162 166 168 171 175 177 182 185 225 7 11 19 22 15 5 357 2 15 109 166 185 199 215 225 221 206 189 199 208 208 198 179 153 111 44 14 9
169 173 173 173 171 171 172 172 174 175 175 174 174 174 175 175 171 170 169 169 168 167 167 167 166 165 166 167 165 164 167 169 170 172 173 173 176 177 176 174 175 175 171 167 165 164 164 166 170 174 177 181 187 196 208 230 298 341 355 8 10 12 7 356 4 29 140 172 193 213 228 234 228 212 200 202 207 213 197 160 149 115 42 15 14
172 175 175 174 174 174 173 173 174 174 174 172 172 173 175 175 173 171 170 170 169 168 168 168 168 167 167 168 167 167 170 171 171 173 175 177 179 181 180 179 180 181 178 174 171 171 172 174 176 181 185 190 200 215 233 265 312 336 345 354 358 6 13 2 6 26 178 191 206 227 240 246 237 223 208 198 206 222 193 153 144 97 46 22 25
175 178 178 177 177 177 175 174 174 174 173 172 172 172 174 175 174 172 170 171 170 169 169 169 171 170 169 170 173 174 173 173 173 174 177 180 182 184 184 183 186 188 187 182 178 177 178 179 182 187 191 199 211 225 245 278 310 329 337 344 348 353 0 354 347 340 261 225 231 241 249 253 245 235 216 193 206 240 193 145 123 73 37 32 33
177 179 181 180 179 179 178 176 174 174 173 173 173 172 174 175 175 172 170 171 171 170 171 172 174 173 172 174 178 179 177 176 177 178 179 182 184 186 187 187 190 193 194 192 187 184 184 186 189 193 197 207 218 230 249 274 299 320 330 336 341 340 339 335 321 298 281 260 246 250 257 257 251 240 218 191 204 235 185 158 92 55 43 38 26
184 186 184 183 184 182 181 179 176 175 174 175 174 173 174 175 175 173 171 172 172 172 173 174 176 177 175 179 183 182 181 180 181 182 182 184 186 188 189 190 192 195 198 197 195 192 192 193 195 201 205 214 227 239 255 271 289 311 322 328 335 333 330 327 318 297 289 282 256 250 259 261 255 241 218 198 209 216 188 203 27 59 56 25 26
185 193 189 186 186 186 186 183 180 178 177 177 176 176 176 176 176 174 174 174 175 175 176 177 179 180 179 183 186 185 184 184 184 183 186 187 188 190 191 193 195 196 198 199 199 198 198 200 204 210 215 224 238 250 261 273 287 306 317 323 327 326 327 323 313 293 288 293 261 245 257 260 253 241 216 204 217 213 199 257 53 83 57 27 39
184 193 193 190 187 188 191 189 186 183 181 179 177 178 177 177 178 177 174 175 178 178 178 180 181 182 183 186 187 187 187 188 188 187 189 191 192 194 194 196 198 199 201 202 202 202 203 206 212 219 227 236 246 255 265 277 292 307 312 314 320 322 324 321 305 282 278 284 260 240 252 255 247 239 214 204 219 210 205 250 107 98 51 49 42
189 193 192 191 190 189 190 193 193 190 186 181 178 179 179 179 180 179 176 176 179 179 179 182 183 184 185 187 188 188 189 190 192 193 192 194 197 198 198 199 201 204 206 206 206 206 208 211 217 225 233 241 249 258 268 281 296 310 311 313 321 325 326 320 296 270 267 269 252 236 244 248 243 235 210 201 215 205 196 179 126 108 81 67 38
193 191 191 190 191 192 190 192 196 195 192 185 181 182 182 181 180 180 179 177 180 181 181 183 184 185 187 188 190 190 191 191 194 195 195 197 199 202 202 203 205 208 211 211 212 213 214 216 220 227 234 242 250 259 269 281 296 311 312 315 326 330 331 320 286 259 258 255 241 233 239 241 241 233 208 201 209 200 190 175 142 130 108 63 50
198 191 188 188 188 192 192 192 195 196 196 192 187 188 188 185 183 182 180 178 181 183 183 184 185 187 188 190 192 193 193 193 195 197 198 199 201 203 205 206 208 211 213 214 217 220 222 223 225 228 234 239 248 259 269 277 290 309 310 315 327 332 331 317 279 247 247 243 234 231 234 235 238 230 206 201 208 201 192 176 149 139 127 73 79
202 194 186 186 186 189 191 191 194 195 196 196 194 195 193 189 186 185 183 180 181 184 185 186 186 188 189 191 194 195 195 195 196 199 200 200 202 204 206 209 211 213 216 217 219 224 227 230 231 232 232 235 244 255 264 269 277 305 310 312 327 333 328 312 269 233 236 232 232 229 229 234 235 228 205 201 211 203 188 177 161 151 142 80 69
201 192 190 189 188 189 189 190 194 195 196 196 199 201 198 193 189 187 186 182 182 183 186 188 188 190 192 193 195 197 198 198 198 200 201 201 202 203 206 209 211 214 217 218 221 225 229 231 231 230 230 234 239 245 253 261 280 307 314 317 328 333 325 298 240 220 225 225 229 226 225 230 229 225 205 201 212 204 187 177 166 155 142 92 60
200 193 192 190 189 191 191 192 194 196 196 196 198 201 201 198 193 190 189 186 184 183 187 190 190 192 194 195 197 200 202 202 200 201 202 202 203 203 205 208 209 211 214 216 218 220 223 223 223 224 227 232 234 234 244 267 292 313 325 328 330 330 319 272 223 212 218 221 226 224 225 226 224 220 204 203 212 202 189 177 170 162 157 163 213
199 195 192 190 189 190 194 194 193 197 197 195 196 200 202 202 198 193 191 188 187 186 188 192 192 194 197 197 200 203 206 206 205 205 205 205 205 204 204 205 205 207 208 209 212 214 217 217 219 222 224 228 229 232 250 281 301 319 336 337 331 326 307 247 219 212 216 219 224 226 225 224 222 214 202 206 210 202 193 180 175 169 172 207 207
193 194 192 191 189 188 192 194 194 198 196 194 197 199 200 204 202 197 192 190 189 189 191 193 194 196 199 200 202 205 208 209 210 210 210 210 208 206 205 204 202 203 204 206 210 215 219 219 220 221 222 229 236 248 268 289 304 322 336 337 330 321 288 236 224 219 220 220 226 228 225 225 222 211 202 206 208 204 198 186 179 174 182 206 187
180 189 193 192 189 186 188 193 196 199 197 196 198 199 201 204 204 200 194 191 191 192 193 194 195 197 200 202 203 206 208 210 212 214 215 215 212 210 208 204 202 200 199 205 212 219 221 219 220 223 230 239 255 274 286 296 308 325 333 333 328 316 267 231 234 231 225 225 231 231 225 223 220 213 206 206 207 206 200 191 184 184 190 197 179
174 182 194 193 188 185 185 190 195 199 200 201 200 201 204 203 205 204 197 193 194 195 195 196 197 198 201 203 204 206 209 211 213 215 218 218 216 214 210 205 201 198 198 205 213 216 218 219 224 235 245 251 270 289 298 305 318 331 329 329 325 306 254 234 244 243 232 231 237 232 225 222 218 215 212 210 208 204 200 196 192 194 194 187 171
176 176 187 191 187 183 182 185 191 198 203 204 203 206 207 204 206 206 200 197 198 199 197 197 198 199 202 203 205 206 209 211 213 216 220 221 220 215 209 204 201 200 203 211 214 217 223 229 234 245 252 255 274 295 306 314 322 331 330 326 317 289 247 236 247 249 241 239 241 233 224 220 216 216 216 214 211 204 201 201 197 195 191 181 158
180 174 180 188 188 184 182 183 187 194 201 203 203 208 210 206 207 207 203 201 202 203 200 199 200 201 203 205 206 207 209 212 213 216 220 223 223 216 208 204 203 205 211 219 221 226 236 240 244 247 241 242 263 286 294 301 315 327 330 324 307 278 248 241 246 247 246 247 246 235 226 220 216 217 218 216 214 208 203 202 197 193 190 180 156
185 175 178 185 187 187 185 182 182 188 195 200 203 207 209 207 207 206 206 205 205 207 204 202 202 202 205 207 208 208 210 212 213 216 219 224 225 219 212 210 209 211 218 225 229 236 245 246 249 244 225 225 245 266 278 287 298 306 313 314 300 277 255 245 244 246 249 252 250 237 225 218 216 218 219 218 216 212 207 205 200 193 186 176 165
192 177 176 182 186 186 184 181 181 185 188 193 198 201 203 204 205 204 206 207 208 210 209 206 204 204 206 208 209 209 210 212 214 217 219 223 225 222 219 218 218 219 223 229 233 240 248 249 249 239 223 223 235 251 270 282 289 294 303 303 291 275 258 246 243 248 252 254 251 235 219 218 224 223 220 219 217 216 215 211 204 197 186 175 177
195 181 174 179 187 186 182 181 183 185 186 189 194 195 196 197 199 202 204 206 207 211 212 209 207 207 208 210 211 211 211 212 215 217 219 221 224 223 223 224 225 227 229 232 234 242 250 252 249 237 226 228 236 248 265 279 288 290 296 295 284 268 249 241 243 248 252 253 245 229 219 222 228 225 221 221 221 220 221 215 208 202 190 181 183
201 193 177 177 186 185 182 183 185 186 188 191 194 195 197 197 200 203 202 205 208 211 214 213 210 209 210 211 213 214 214 214 216 219 220 221 222 223 223 225 229 232 235 236 237 243 250 251 246 233 224 228 236 242 255 274 284 275 278 297 129 225 228 230 238 243 247 247 240 231 229 228 227 224 221 223 224 223 223 218 212 205 192 188 192
206 202 186 180 186 183 181 184 186 188 191 193 194 195 196 200 205 207 206 208 210 214 218 218 215 212 212 213 215 217 217 216 218 220 221 222 223 223 222 224 230 236 240 240 240 242 246 247 239 228 222 225 228 230 246 267 267 246 275 343 225 313 255 236 234 237 242 244 241 234 230 231 230 227 224 223 223 222 222 219 215 208 195 192 198
203 196 189 187 190 183 179 183 187 189 192 193 195 195 195 198 204 208 210 212 216 222 223 222 221 217 215 215 217 219 219 219 219 221 222 223 224 224 223 226 233 239 241 239 239 240 241 240 235 228 225 224 221 223 236 252 251 236 209 49 16 95 302 262 245 241 241 242 241 232 227 232 233 230 227 225 224 222 222 220 216 209 198 195 202
202 191 187 188 191 184 178 183 187 188 190 191 192 191 189 191 193 195 198 201 210 218 217 218 219 218 216 217 218 219 221 222 222 221 222 223 224 224 223 227 234 238 236 235 237 240 240 239 236 232 230 229 226 226 231 244 250 241 220 198 16 275 242 263 269 256 238 232 237 235 230 233 235 235 229 224 226 226 223 222 217 209 200 198 205
204 194 187 186 189 185 180 182 185 186 188 189 189 187 186 187 184 182 183 186 195 204 208 211 214 215 216 216 217 218 220 222 223 223 223 224 225 225 223 225 231 234 233 234 237 239 239 238 236 233 232 232 234 231 233 242 249 242 231 231 247 258 239 194 173 283 242 229 231 234 236 235 237 239 233 225 226 225 224 224 220 211 200 200 208
198 194 189 186 187 185 182 183 182 184 186 186 186 186 187 190 190 188 187 188 193 202 208 212 215 214 214 215 215 217 220 221 222 223 223 225 226 226 224 224 229 233 235 235 238 240 239 237 235 235 235 236 234 229 231 239 242 244 241 242 249 254 252 238 221 250 279 243 223 223 234 235 231 233 235 233 228 226 225 224 222 214 202 202 208
189 184 184 185 184 184 183 182 181 181 184 185 185 187 189 192 195 195 194 196 200 205 210 213 216 214 213 214 214 216 219 221 223 223 223 224 226 226 226 225 228 233 236 237 239 241 240 237 234 235 235 235 233 230 233 240 241 246 252 251 252 255 256 253 249 242 237 269 235 214 229 236 233 231 240 244 235 230 230 225 224 217 205 204 207
194 181 176 177 179 181 180 178 178 180 183 185 186 189 191 192 194 196 198 202 205 209 213 213 213 213 211 212 212 214 218 220 223 223 223 223 225 226 227 226 228 232 235 237 239 240 240 237 235 236 236 234 233 231 235 246 252 253 255 255 256 256 254 253 251 239 216 228 250 214 223 235 239 235 240 246 241 234 233 229 228 221 209 208 206
209 199 179 170 172 176 176 174 176 181 184 185 187 190 192 192 194 196 199 202 205 208 211 210 209 209 209 209 210 211 215 217 219 222 223 223 222 225 227 226 229 233 235 237 238 240 240 240 240 241 241 239 234 231 239 255 262 260 257 254 252 249 239 223 227 228 218 223 247 265 240 234 241 235 232 241 240 234 234 232 230 227 217 212 207
206 204 189 178 175 175 174 174 178 183 185 187 189 192 192 193 196 198 200 201 203 204 204 204 205 205 207 208 207 209 213 215 217 219 222 224 224 225 226 227 230 233 235 236 239 242 242 243 245 246 244 240 234 232 243 256 261 260 258 257 258 257 251 236 229 231 226 226 245 268 255 248 256 253 240 245 241 233 234 233 232 230 221 213 208